Location: Unspecified
(0.0000°N, 0.0000°E)
Time: 06:56:21
(UTC+00:00)

Freja - Pass Details

Date: 01 June 2024
Orbit: 548 x 1731 km, 63.0° (Epoch: 13 June)

Event Time Altitude Azimuth Distance (km) Brightness Sun altitude
Rises 19:27:45 0° 333° (NNW) 2,756 9.2 -20.7°
Reaches altitude 10° 19:29:58 10° 331° (NNW) 1,821 8.2 -21.2°
Maximum altitude 19:33:53 73° 247° (WSW) 576 4.9 -22.1°
Enters shadow 19:34:32 58° 186° (S) 647 5.0 -22.2°
